White Plains, CT

9:58 AM EDT on March 27, 2017 (GMT -0400)
Westchester County

Weather History for KHPN - November, 2011

Change the Weather History Date:

Tuesday, November 15, 2011

  Actual Average Record
Temperature  
Mean Temperature 60 °F -  
Max Temperature 64 °F 48 °F 77 °F (1993)
Min Temperature 55 °F 34 °F 23 °F (1996)
Degree Days  
Heating Degree Days 6    
Growing Degree Days 10 (Base 50)    
Moisture  
Dew Point 50 °F    
Average Humidity 68    
Maximum Humidity 81    
Minimum Humidity 54    
Precipitation  
Precipitation 0.01 in - - ()
Sea Level Pressure  
Sea Level Pressure 29.84 in    
Wind  
Wind Speed 4 mph (West)    
Max Wind Speed 9 mph    
Max Gust Speed -    
Visibility 10 miles    
Events Rain    
Averages and records for this station are not official NWS values.
T = Trace of Precipitation, MM = Missing Value Source: NWS Daily Summary

Daily Weather History Graph

Daily Weather History Graph

Search for Another Location

Airport or City:

Trip Planner

Search our weather history database for the weather conditions in past years. The results will help you decide how hot, cold, wet, or windy it might be!

Date:

Astronomy

Nov. 15, 2011 Rise Set
Actual Time 6:42 AM EST 4:36 PM EST
Civil Twilight 6:12 AM EST 5:05 PM EST
Nautical Twilight 5:39 AM EST 5:38 PM EST
Astronomical Twilight 5:06 AM EST 6:11 PM EST
Moon 8:42 PM EST (11/15) 10:40 AM EST (11/15)
Length of Visible Light 10h 53m
Length of Day
9h 54m
Waning Gibbous, 79% of the Moon is Illuminated
Nov 15
Waning Gibbous
Nov 18
Last Quarter
Nov 25
New
Dec 2
First Quarter
Dec 10
Full

Hourly Weather History & Observations

Time (EST) Temp. Dew Point Humidity Pressure Visibility Wind Dir Wind Speed Gust Speed Precip Events Conditions
12:56 AM 64.0 °F 52.0 °F 65% 29.73 in 10.0 mi Variable 4.6 mph - N/A   Mostly Cloudy
1:56 AM 62.1 °F 51.1 °F 67% 29.77 in 10.0 mi West 5.8 mph - N/A   Clear
2:56 AM 61.0 °F 51.1 °F 70% 29.75 in 10.0 mi Variable 4.6 mph - N/A   Clear
3:56 AM 61.0 °F 51.1 °F 70% 29.76 in 10.0 mi West 5.8 mph - N/A   Partly Cloudy
4:56 AM 61.0 °F 51.1 °F 70% 29.75 in 10.0 mi Calm Calm - N/A   Clear
5:56 AM 60.1 °F 51.1 °F 72% 29.74 in 10.0 mi SSW 4.6 mph - N/A   Clear
6:56 AM 61.0 °F 51.1 °F 70% 29.79 in 10.0 mi West 8.1 mph - N/A   Scattered Clouds
7:56 AM 62.1 °F 51.1 °F 67% 29.80 in 10.0 mi West 5.8 mph - N/A   Mostly Cloudy
8:56 AM 63.0 °F 51.1 °F 65% 29.80 in 10.0 mi West 5.8 mph - N/A   Mostly Cloudy
9:56 AM 62.1 °F 51.1 °F 67% 29.81 in 10.0 mi West 5.8 mph - N/A   Mostly Cloudy
10:56 AM 62.1 °F 51.1 °F 67% 29.83 in 10.0 mi West 9.2 mph - N/A   Mostly Cloudy
11:56 AM 62.1 °F 51.1 °F 67% 29.82 in 10.0 mi WNW 6.9 mph - N/A   Mostly Cloudy
12:56 PM 63.0 °F 48.0 °F 58% 29.83 in 10.0 mi WNW 3.5 mph - N/A   Mostly Cloudy
1:56 PM 64.0 °F 46.9 °F 54% 29.84 in 10.0 mi West 6.9 mph - N/A   Mostly Cloudy
2:56 PM 63.0 °F 46.9 °F 56% 29.83 in 10.0 mi Calm Calm - N/A   Mostly Cloudy
3:56 PM 62.1 °F 46.0 °F 56% 29.86 in 10.0 mi West 3.5 mph - N/A   Overcast
4:56 PM 60.1 °F 46.9 °F 62% 29.87 in 10.0 mi Calm Calm - N/A   Mostly Cloudy
5:56 PM 59.0 °F 48.0 °F 67% 29.92 in 10.0 mi West 5.8 mph - 0.00 in Rain Light Rain
6:56 PM 57.0 °F 51.1 °F 81% 29.93 in 10.0 mi Calm Calm - 0.00 in Rain Light Rain
7:56 PM 57.0 °F 50.0 °F 77% 29.95 in 10.0 mi West 3.5 mph - 0.01 in   Mostly Cloudy
8:56 PM 57.0 °F 50.0 °F 77% 29.94 in 10.0 mi Calm Calm - 0.00 in   Mostly Cloudy
9:56 PM 57.0 °F 50.0 °F 77% 29.95 in 10.0 mi Calm Calm - 0.00 in   Mostly Cloudy
10:56 PM 55.9 °F 50.0 °F 80% 29.95 in 10.0 mi Calm Calm - N/A   Overcast
11:56 PM 55.9 °F 50.0 °F 80% 29.95 in 10.0 mi West 3.5 mph - 0.00 in   Mostly Cloudy